Wetbulb
77.21 76.58 75.79 73.42 62.18 61.03 55.34 55.86 63.08 61.70 62.28 65.98 67.28 64.95 63.12 64.08 60.90 56.73 70.73 72.30 72.98 72.75 73.97 77.49 78.35 78.35 77.90 77.76 78.22 78.18 78.31 77.95 77.76 78.26 77.91 77.78 78.22 77.65 77.43 77.76 77.02 76.99 76.94 76.94 76.78 76.47 76.77 76.51 76.15
74.51 75.28 74.25 69.03 59.41 53.81 55.85 60.76 60.38 63.66 66.09 66.82 66.50 65.18 63.60 62.55 66.43 67.62 68.90 72.51 73.32 73.39 73.72 75.83 78.35 78.06 77.65 77.64 78.40 77.83 77.98 77.70 77.78 77.69 77.71 77.69 77.62 76.90 76.91 77.02 76.95 77.32 76.67 76.28 76.36 76.52 76.71 76.34 75.92
72.39 74.08 67.80 63.78 59.58 53.68 55.73 61.18 62.25 65.84 67.98 66.93 65.40 67.10 64.84 63.62 67.82 68.82 71.49 72.83 73.02 72.88 74.53 75.74 77.66 78.18 77.54 77.68 77.38 77.44 77.61 77.89 77.76 77.40 76.63 77.29 77.15 76.93 76.53 76.45 76.25 76.50 77.08 77.05 76.58 76.19 75.75 75.28 74.92
71.50 71.78 68.76 59.89 54.54 59.53 60.84 63.31 65.72 65.16 66.77 67.01 65.52 62.59 66.82 69.96 68.96 70.16 72.05 72.87 71.96 72.49 75.48 77.08 77.98 77.78 77.70 77.46 77.50 77.80 76.84 76.79 76.66 76.54 77.32 77.31 76.99 77.29 77.40 77.16 76.83 76.80 76.64 76.14 75.89 75.48 75.12 75.03 75.06
69.50 69.30 61.87 57.55 53.88 59.59 63.75 65.65 65.96 64.18 65.07 65.10 66.04 63.64 64.89 68.67 71.23 71.73 71.86 71.91 71.16 72.31 74.73 75.84 78.53 78.00 77.75 77.53 77.57 77.49 76.87 77.37 77.35 77.25 77.00 77.13 77.20 77.12 77.04 77.04 76.82 76.33 76.06 75.62 75.22 74.83 74.91 75.20 75.64
65.16 65.75 58.61 55.23 55.85 61.26 64.25 66.37 65.76 64.22 64.52 64.89 64.05 63.78 64.98 69.77 69.99 70.95 72.17 72.11 72.95 73.49 75.11 75.58 77.58 77.73 77.94 77.59 77.36 76.99 76.32 77.36 77.59 77.41 77.27 77.24 76.72 76.48 76.62 76.32 75.86 75.48 75.36 75.17 75.12 75.23 75.50 75.87 76.23
62.76 59.07 57.13 55.84 57.35 61.15 63.78 67.22 64.92 64.55 64.51 63.66 66.33 62.82 65.64 67.65 70.37 71.33 71.74 72.18 73.14 73.94 73.90 74.21 75.47 76.95 77.46 77.77 77.32 76.92 76.32 77.21 77.01 76.78 76.97 77.05 77.27 76.73 76.21 76.09 75.95 75.69 75.33 75.31 75.59 75.92 76.25 77.37 77.79
63.91 60.44 58.62 56.91 57.64 59.09 64.37 65.44 66.98 65.57 64.25 68.45 67.64 62.07 62.30 66.68 69.83 70.48 71.16 71.40 72.37 72.84 73.59 74.06 74.89 75.24 74.87 74.91 77.77 77.74 77.70 76.95 76.43 76.08 76.16 76.49 76.58 76.47 76.58 77.21 77.21 76.13 75.86 75.64 75.84 76.12 77.75 77.93 77.97
68.21 57.78 54.08 56.99 57.40 61.12 65.65 64.40 67.58 69.03 66.66 67.54 67.82 66.18 66.66 68.32 68.92 68.88 68.89 69.86 70.00 71.35 72.51 72.89 72.95 74.12 73.85 74.06 75.72 77.22 77.05 76.80 76.40 75.45 75.86 75.96 74.73 74.12 75.06 76.00 76.67 75.81 75.50 75.33 75.59 73.58 72.35 74.08 75.86
59.14 56.12 56.68 61.39 61.64 62.00 65.00 64.71 65.90 65.29 64.88 64.65 65.45 67.99 68.21 66.94 67.07 66.66 66.67 66.39 66.86 69.14 70.99 72.54 72.96 73.42 72.46 73.38 73.71 73.33 75.23 73.82 73.13 72.67 71.07 72.29 73.85 73.47 75.01 74.99 76.28 76.17 77.11 77.04 72.75 71.92 71.23 71.11 71.30
58.91 54.34 59.62 60.85 62.48 63.61 61.27 65.60 67.21 64.73 62.74 64.48 63.84 65.75 66.54 66.06 65.17 65.43 66.94 66.75 67.03 69.25 70.18 71.87 72.86 72.68 72.22 72.85 73.19 72.77 72.96 73.68 73.26 70.29 70.79 73.51 74.98 74.07 72.47 70.85 69.04 73.60 76.57 74.94 72.96 70.21 69.26 69.40 70.73
55.60 59.59 60.64 60.91 63.15 63.13 64.23 66.75 65.87 66.07 65.43 67.75 67.46 67.14 65.99 64.64 64.28 65.30 64.62 64.75 66.25 67.98 69.00 68.75 71.01 71.05 72.14 69.42 68.72 70.82 72.36 71.31 72.02 73.17 74.14 74.01 73.62 73.26 72.38 71.32 71.98 73.09 74.39 73.54 71.16 68.97 69.42 69.14 71.90
56.58 58.72 60.23 61.46 62.94 63.82 66.02 64.99 65.28 65.15 67.61 68.62 68.53 67.61 66.22 66.04 65.87 66.01 64.31 64.49 65.21 65.15 66.88 68.07 71.78 70.82 72.35 66.88 67.73 68.57 70.20 71.58 70.52 73.84 74.89 75.03 74.25 72.77 73.68 73.85 74.51 74.15 74.25 72.82 72.24 68.65 68.65 69.35 71.43
59.10 58.62 59.34 60.77 63.07 64.45 63.39 63.68 65.47 65.58 67.72 67.15 67.48 67.08 67.48 66.60 66.46 65.85 64.54 63.26 64.42 65.25 66.67 68.42 71.66 71.31 72.03 70.06 67.91 69.46 70.97 72.73 73.75 75.54 74.68 74.50 74.96 74.35 73.90 73.28 65.61 67.98 73.54 73.76 72.70 72.68 72.62 72.41 73.06
62.03 56.62 58.81 59.45 61.02 62.31 64.76 61.01 62.33 66.06 67.13 65.39 65.96 66.57 66.62 66.38 67.43 66.61 66.49 65.00 64.95 65.55 67.91 70.96 70.87 70.86 70.05 72.98 71.88 71.72 71.47 73.01 70.55 74.11 73.68 74.26 73.67 74.56 73.30 68.03 64.54 67.75 71.13 73.73 73.87 73.79 74.18 74.11 72.64
59.41 57.47 52.39 59.03 60.87 62.91 61.46 56.43 63.47 66.27 65.72 64.54 65.75 66.55 66.99 67.19 67.84 67.50 68.05 67.29 67.86 68.43 67.67 71.53 71.79 70.21 70.57 71.64 71.05 71.07 72.97 71.02 71.16 71.60 73.40 74.02 73.52 74.79 73.10 68.96 64.13 65.87 66.67 72.93 71.47 72.39 70.82 70.73 68.82
56.16 50.87 52.45 55.94 61.56 60.94 59.49 57.86 63.58 65.93 65.35 64.48 64.92 65.52 66.71 67.08 67.51 68.45 69.20 68.95 68.73 68.82 69.87 70.02 69.34 68.92 70.86 71.17 70.75 71.96 72.23 70.58 70.49 71.29 69.89 72.55 74.15 75.31 73.73 73.03 69.25 67.06 71.33 72.89 72.29 72.34 72.01 69.78 69.11
51.80 51.63 52.72 53.32 59.00 60.78 58.91 58.07 63.01 64.85 64.85 64.57 64.98 65.72 66.00 66.46 66.77 68.89 69.41 69.35 69.14 69.91 70.03 70.00 69.95 69.30 70.84 70.58 71.07 71.31 71.24 71.71 71.10 70.83 70.29 71.35 71.69 73.73 74.96 73.84 73.74 73.65 72.29 71.35 70.98 71.31 71.94 70.15 69.17
56.59 55.48 53.64 56.21 60.23 58.66 56.67 58.85 60.88 63.36 64.04 64.11 64.58 65.00 65.35 66.11 67.90 69.36 68.75 69.47 69.43 69.20 68.91 70.29 68.71 70.09 71.14 70.63 69.25 68.63 68.13 69.11 69.34 70.21 71.09 70.58 72.58 74.05 74.54 74.37 73.59 73.76 72.15 71.66 71.97 71.88 69.99 70.53 70.99
56.80 55.18 53.86 56.88 59.85 57.27 55.50 57.28 60.73 62.33 63.09 64.32 64.69 64.92 65.73 66.27 67.27 68.49 69.17 69.37 69.28 68.55 68.87 70.31 69.86 69.87 71.14 71.21 69.93 70.23 70.46 70.58 71.91 71.80 71.77 72.14 72.39 73.58 74.80 73.44 73.32 73.62 73.34 71.97 70.66 70.34 69.75 70.44 69.46
56.14 54.77 54.31 54.98 57.43 58.50 57.69 54.98 57.47 60.17 61.95 64.18 65.49 66.01 66.11 66.19 66.53 67.77 68.44 68.98 69.52 68.73 69.93 70.44 70.67 72.10 70.87 71.05 71.11 71.36 71.91 70.13 68.99 68.84 69.24 70.19 72.65 73.38 74.41 74.20 74.36 74.20 72.80 72.97 72.38 71.43 70.73 68.37 69.43
52.78 58.92 58.02 56.67 52.38 46.62 58.65 47.61 54.58 57.39 58.05 61.18 63.20 64.24 65.11 66.22 67.98 68.13 68.30 68.48 69.19 69.73 70.71 70.94 71.49 71.51 72.15 71.61 71.20 69.98 68.63 67.57 68.37 68.53 70.76 72.46 73.07 72.82 74.75 74.59 73.89 74.80 73.71 73.47 72.71 73.97 71.45 71.16 69.43
55.84 59.60 57.16 54.43 49.97 48.50 51.08 51.56 53.64 57.37 55.64 57.96 61.27 62.76 64.24 66.87 67.25 67.58 68.59 69.54 70.08 70.75 71.08 70.96 71.30 71.14 71.59 72.01 71.09 70.04 70.30 70.42 70.50 70.43 69.84 69.88 73.30 74.31 73.16 68.89 66.98 71.56 73.57 73.75 73.81 72.41 71.01 70.28 69.60
59.54 55.90 55.63 51.83 47.71 42.45 48.64 49.34 52.84 55.29 56.73 58.68 61.05 62.05 63.61 66.39 67.64 68.50 69.18 69.63 69.72 71.06 71.83 71.37 70.75 70.89 71.46 72.22 71.76 70.71 69.42 69.68 69.83 69.57 71.63 72.03 72.52 73.53 70.18 67.17 66.68 67.95 68.49 72.46 72.85 72.10 72.28 70.56 70.38
55.06 50.14 43.69 42.29 41.23 41.77 48.02 48.67 50.88 58.83 60.51 60.65 61.18 62.27 63.56 65.75 66.82 67.83 68.09 68.93 69.47 69.85 70.97 72.02 72.46 71.51 72.84 72.87 73.25 72.33 72.24 72.93 72.68 70.47 70.57 70.95 71.78 71.41 72.19 68.18 68.25 68.41 68.93 72.71 72.60 71.95 70.97 70.66 69.32
51.60 49.78 44.71 40.46 40.71 44.46 50.01 47.25 53.16 61.06 62.48 62.51 63.10 63.74 64.23 64.48 66.16 67.22 68.02 68.84 69.19 69.79 70.31 71.82 72.63 72.50 73.77 73.77 73.31 73.96 73.54 73.16 72.89 72.43 71.76 71.29 71.90 72.65 72.24 72.24 71.33 70.77 72.58 71.86 71.29 70.64 70.04 70.19 69.28
51.93 49.11 51.59 45.94 45.37 45.44 49.62 54.68 57.56 60.46 60.32 61.68 61.47 62.32 63.69 64.64 65.52 66.72 67.93 68.70 68.86 69.36 69.82 70.85 72.30 72.64 73.39 73.97 73.54 73.39 74.11 73.52 72.56 71.74 71.71 71.32 71.92 74.54 73.91 72.31 71.14 71.11 71.34 70.82 70.18 69.42 68.65 69.10 68.56
52.83 54.49 46.92 45.66 40.64 40.08 48.27 50.37 49.66 54.21 57.13 60.21 61.08 61.17 63.47 64.75 65.55 66.77 67.73 68.37 69.29 69.63 69.91 70.65 72.58 72.55 73.44 73.37 73.46 73.47 73.68 74.06 73.33 73.33 73.70 74.63 74.13 74.25 72.70 72.13 71.47 71.35 71.24 70.51 69.99 68.74 67.02 64.99 64.37
50.16 49.14 48.77 47.75 46.25 41.08 41.99 47.91 56.51 56.27 57.15 58.96 60.82 62.20 62.76 63.78 65.33 66.39 67.92 68.74 69.49 69.78 69.91 70.11 72.71 72.89 73.32 73.66 73.44 73.22 73.75 74.03 74.65 74.46 75.06 75.17 73.19 72.72 72.10 71.11 69.83 69.52 68.70 66.87 65.02 63.75 63.38 62.39 61.88
52.38 49.47 48.45 44.46 43.55 45.52 46.53 46.66 56.94 59.91 58.87 57.94 57.54 62.68 63.84 64.50 65.36 66.52 67.67 68.69 69.01 69.13 69.68 70.12 72.74 73.12 73.88 74.33 74.05 74.29 74.84 75.24 75.36 75.45 74.69 74.15 72.38 73.12 71.20 69.80 67.95 65.96 64.02 62.33 61.11 60.04 60.28 59.88 58.97
MSLP
1008.07 1008.38 1009.22 1009.56 1010.41 1010.64 1010.71 1010.53 1009.98 1009.12 1008.85 1009.44 1009.65 1010.37 1011.83 1012.47 1013.42 1015.57 1016.45 1016.56 1016.48 1016.57 1016.43 1016.25 1016.36 1016.43 1016.61 1016.73 1016.89 1017.05 1017.08 1017.18 1017.29 1017.27 1017.23 1017.34 1017.44 1017.45 1017.49 1017.36 1017.37 1017.42 1017.71 1017.78 1017.60 1017.57 1017.48 1017.51 1017.69
1007.52 1008.20 1009.11 1008.46 1008.54 1008.92 1009.34 1009.09 1008.94 1008.10 1008.61 1009.39 1010.26 1010.96 1011.98 1013.58 1014.29 1015.53 1016.26 1016.50 1016.45 1016.34 1016.40 1016.46 1016.52 1016.65 1016.94 1017.08 1017.11 1017.35 1017.29 1017.40 1017.47 1017.63 1017.72 1017.72 1017.83 1017.81 1017.78 1017.77 1017.79 1017.67 1017.93 1018.19 1018.24 1018.15 1017.87 1017.75 1017.86
1007.95 1008.30 1008.80 1007.70 1007.40 1006.85 1006.86 1007.26 1007.49 1007.78 1008.20 1008.82 1010.38 1011.45 1012.84 1014.37 1014.95 1015.58 1016.21 1016.41 1016.40 1016.49 1016.55 1016.63 1016.73 1016.95 1017.14 1017.31 1017.49 1017.54 1017.60 1017.66 1017.85 1017.88 1017.97 1018.03 1018.04 1018.09 1018.09 1018.23 1018.26 1018.28 1018.20 1018.42 1018.58 1018.49 1018.34 1018.14 1018.06
1007.82 1007.64 1007.45 1007.20 1006.05 1005.58 1005.78 1006.60 1007.12 1007.69 1008.69 1009.69 1010.81 1012.62 1014.09 1014.87 1015.07 1015.68 1016.23 1016.24 1016.45 1016.63 1016.72 1016.90 1017.01 1017.20 1017.46 1017.69 1017.73 1017.85 1017.98 1018.09 1018.16 1018.21 1018.17 1018.22 1018.25 1018.43 1018.38 1018.57 1018.64 1018.73 1018.59 1018.69 1018.62 1018.56 1018.37 1018.24 1018.06
1006.79 1006.96 1006.97 1005.88 1005.00 1004.63 1005.21 1006.19 1007.20 1008.56 1009.47 1010.80 1011.31 1013.47 1014.71 1015.85 1015.88 1016.15 1016.27 1016.38 1016.46 1016.88 1016.85 1017.11 1017.18 1017.36 1017.63 1017.93 1017.95 1018.13 1018.31 1018.37 1018.40 1018.45 1018.43 1018.45 1018.52 1018.68 1018.85 1018.99 1018.94 1019.13 1018.87 1018.80 1018.73 1018.59 1018.27 1018.10 1017.97
1005.99 1006.45 1006.24 1005.91 1004.90 1004.69 1005.36 1006.24 1007.31 1008.94 1010.40 1011.72 1012.53 1013.84 1015.62 1016.44 1016.31 1016.66 1016.61 1016.59 1016.78 1016.99 1017.01 1017.12 1017.46 1017.67 1017.89 1018.17 1018.25 1018.40 1018.63 1018.74 1018.69 1018.59 1018.57 1018.81 1018.83 1019.03 1019.15 1019.18 1019.05 1019.17 1018.93 1018.99 1018.87 1018.75 1018.40 1018.06 1017.92
1005.47 1005.89 1005.65 1004.73 1004.56 1004.61 1005.45 1006.51 1007.55 1008.67 1010.20 1011.75 1012.75 1014.12 1016.07 1016.61 1016.67 1016.79 1016.93 1017.01 1017.07 1017.21 1017.30 1017.47 1017.69 1017.84 1018.24 1018.22 1018.33 1018.49 1018.68 1018.85 1018.82 1018.89 1018.87 1018.89 1018.97 1018.99 1019.08 1019.11 1019.01 1019.06 1019.06 1019.12 1019.02 1018.86 1018.53 1018.24 1018.13
1004.61 1005.31 1004.48 1004.18 1004.55 1005.17 1005.39 1006.29 1007.58 1008.50 1010.26 1011.70 1012.60 1014.36 1015.72 1016.57 1016.64 1016.95 1017.16 1017.36 1017.42 1017.44 1017.52 1017.61 1017.86 1018.17 1018.32 1018.43 1018.46 1018.53 1018.68 1018.77 1019.01 1018.99 1019.04 1019.21 1019.08 1019.24 1019.06 1019.04 1018.80 1018.80 1018.84 1018.81 1018.82 1018.82 1018.83 1018.33 1018.02
1004.44 1004.65 1004.06 1003.68 1003.78 1004.93 1005.47 1006.30 1007.84 1008.63 1009.94 1011.11 1012.15 1013.75 1015.26 1016.18 1016.71 1017.06 1017.55 1017.73 1017.83 1018.01 1017.93 1017.99 1018.19 1018.47 1018.49 1018.55 1018.45 1018.75 1018.78 1018.97 1018.97 1018.82 1018.75 1018.92 1019.01 1018.98 1019.04 1018.91 1018.71 1018.74 1018.63 1018.71 1018.79 1018.88 1018.69 1018.14 1017.50
1004.09 1004.15 1003.02 1002.97 1003.21 1004.06 1005.12 1006.07 1007.62 1009.24 1010.89 1012.41 1013.31 1014.61 1015.33 1016.12 1016.65 1017.03 1017.55 1017.90 1018.17 1018.34 1018.26 1018.16 1018.12 1018.20 1018.29 1018.36 1018.61 1018.79 1018.92 1018.83 1018.65 1018.81 1018.97 1018.82 1018.81 1019.03 1018.97 1018.81 1018.41 1018.48 1018.38 1018.53 1018.42 1017.73 1017.56 1017.79 1017.78
1003.33 1003.13 1002.81 1003.16 1003.54 1004.08 1004.77 1006.27 1007.75 1009.38 1011.50 1012.22 1013.07 1014.19 1015.04 1015.86 1016.52 1016.96 1017.45 1017.86 1018.04 1018.09 1018.11 1018.10 1017.99 1018.17 1018.25 1018.63 1018.78 1018.88 1018.72 1018.78 1018.88 1018.72 1018.68 1018.80 1018.93 1019.00 1019.16 1018.84 1018.76 1018.44 1018.32 1018.36 1018.47 1017.82 1016.95 1017.22 1017.78
1002.57 1002.65 1002.90 1003.37 1003.72 1004.28 1005.59 1006.45 1008.04 1009.20 1010.84 1012.29 1013.26 1014.05 1014.97 1015.77 1016.32 1016.68 1017.18 1017.67 1017.95 1018.02 1017.87 1018.02 1017.89 1018.09 1018.17 1018.68 1018.75 1018.76 1018.92 1019.10 1019.13 1018.80 1018.67 1018.91 1018.85 1018.84 1019.15 1019.08 1018.62 1018.32 1018.22 1018.23 1018.41 1018.09 1017.82 1017.58 1017.50
1002.68 1003.07 1003.21 1003.43 1003.99 1004.90 1005.77 1007.28 1008.53 1010.20 1011.26 1012.41 1013.39 1014.22 1014.84 1015.34 1015.88 1016.38 1016.99 1017.61 1017.78 1017.82 1017.68 1017.90 1017.72 1017.93 1017.86 1018.49 1018.47 1018.86 1018.91 1019.31 1019.75 1018.72 1018.36 1018.47 1018.54 1018.54 1018.31 1018.32 1018.23 1017.88 1017.99 1017.89 1018.13 1018.32 1018.14 1017.88 1017.56
1003.16 1003.41 1003.72 1003.98 1004.62 1005.41 1006.70 1007.91 1008.91 1011.03 1011.74 1012.56 1013.36 1013.98 1014.53 1015.16 1015.57 1016.15 1016.81 1017.32 1017.51 1017.48 1017.54 1017.82 1017.86 1017.64 1017.73 1018.61 1018.55 1018.57 1018.73 1018.74 1018.66 1018.37 1018.31 1018.16 1018.48 1018.48 1018.39 1018.63 1018.50 1017.79 1017.78 1017.35 1017.50 1017.66 1017.34 1017.02 1016.59
1003.80 1003.97 1004.19 1004.16 1004.42 1005.58 1006.87 1008.65 1009.96 1010.98 1011.95 1012.67 1013.27 1013.77 1014.38 1015.03 1015.39 1015.76 1016.27 1016.83 1017.04 1017.25 1017.24 1017.64 1017.73 1017.53 1017.74 1018.18 1018.50 1018.47 1018.35 1017.99 1017.97 1018.21 1018.02 1018.03 1017.98 1018.19 1018.41 1018.96 1018.45 1017.94 1017.67 1017.68 1017.45 1017.10 1016.91 1016.96 1016.43
1005.30 1005.62 1005.25 1004.38 1004.41 1005.35 1006.04 1008.84 1009.95 1010.84 1011.57 1012.36 1012.87 1013.42 1014.00 1014.49 1014.80 1015.27 1015.67 1016.18 1016.56 1016.77 1017.01 1017.39 1017.51 1017.77 1017.86 1018.06 1018.18 1018.32 1018.17 1018.03 1018.04 1018.09 1018.00 1017.99 1018.05 1018.03 1018.10 1018.65 1018.55 1017.90 1017.89 1017.67 1017.46 1017.61 1017.22 1017.05 1016.84
1007.45 1006.79 1006.27 1005.26 1004.34 1004.53 1005.59 1008.47 1009.49 1010.21 1011.20 1011.83 1012.44 1013.03 1013.54 1013.96 1014.37 1014.65 1015.19 1015.67 1015.97 1016.19 1016.61 1016.92 1017.20 1017.54 1017.78 1017.84 1018.04 1018.18 1018.14 1018.09 1017.98 1017.96 1017.95 1018.02 1017.86 1017.80 1017.84 1018.21 1018.29 1017.98 1017.96 1017.51 1017.62 1017.61 1017.62 1017.37 1016.97
1007.37 1006.95 1006.70 1006.11 1005.45 1005.04 1005.78 1007.16 1008.57 1009.16 1009.99 1010.82 1011.73 1012.36 1012.91 1013.21 1013.56 1014.06 1014.62 1015.04 1015.38 1015.78 1016.18 1016.59 1017.10 1017.20 1017.47 1017.56 1017.94 1018.14 1018.30 1018.31 1018.05 1017.90 1017.90 1017.83 1017.78 1017.54 1017.54 1017.58 1017.53 1017.43 1017.56 1017.55 1017.50 1017.53 1017.35 1017.28 1016.98
1006.29 1006.73 1006.72 1005.19 1006.04 1005.50 1005.86 1006.83 1007.75 1008.25 1008.92 1009.87 1010.68 1011.42 1012.04 1012.33 1013.03 1013.67 1014.12 1014.52 1014.99 1015.27 1015.85 1016.34 1016.57 1016.86 1017.27 1017.69 1018.09 1018.22 1018.36 1018.05 1017.95 1017.93 1017.82 1017.53 1017.37 1017.31 1017.32 1017.25 1017.15 1017.09 1017.39 1017.57 1017.62 1017.57 1017.37 1017.01 1016.91
1005.58 1006.79 1006.05 1005.42 1004.66 1005.40 1005.02 1006.14 1006.76 1007.11 1007.55 1008.20 1009.14 1010.15 1010.78 1011.55 1012.44 1012.93 1013.51 1014.01 1014.41 1014.91 1015.37 1015.92 1016.21 1016.46 1016.93 1017.33 1017.55 1017.68 1017.82 1017.81 1017.84 1017.71 1017.49 1017.07 1016.89 1017.00 1017.20 1017.34 1017.39 1017.25 1017.14 1017.14 1017.40 1017.62 1017.66 1017.35 1016.91
1004.54 1004.90 1004.82 1004.22 1003.25 1003.75 1004.33 1006.10 1006.26 1006.16 1006.47 1007.27 1007.99 1008.66 1009.35 1010.22 1011.30 1012.12 1012.79 1013.20 1013.69 1014.24 1014.75 1015.28 1015.72 1016.10 1016.48 1016.90 1017.14 1017.40 1017.57 1017.48 1017.66 1017.60 1017.38 1016.73 1016.66 1016.90 1016.95 1016.66 1016.83 1017.09 1017.35 1017.30 1017.35 1017.59 1017.69 1017.76 1016.98
1002.79 1003.00 1002.26 1002.51 1003.17 1002.62 1003.17 1005.48 1005.81 1005.44 1005.63 1006.37 1007.13 1007.82 1008.41 1009.23 1010.24 1011.25 1012.09 1012.65 1013.06 1013.48 1014.09 1014.77 1015.29 1015.69 1016.10 1016.52 1016.89 1017.35 1017.58 1017.70 1017.59 1017.52 1017.32 1016.80 1016.32 1016.49 1016.42 1016.73 1016.44 1017.00 1017.02 1016.87 1016.96 1017.21 1017.39 1017.40 1017.24
1000.08 1000.80 1000.23 1000.58 1001.65 1002.13 1002.46 1003.77 1004.43 1004.77 1005.08 1005.34 1006.02 1006.64 1007.27 1008.16 1009.13 1010.11 1010.90 1011.67 1012.35 1012.94 1013.47 1014.04 1014.66 1015.17 1015.61 1016.16 1016.47 1016.95 1017.28 1017.31 1017.25 1017.34 1017.18 1016.65 1016.29 1016.02 1016.58 1016.74 1016.58 1016.96 1017.19 1016.56 1016.84 1016.94 1017.09 1017.15 1017.14
998.45 999.45 1000.01 1000.51 1001.65 1002.37 1002.08 1002.50 1003.30 1003.33 1003.23 1003.91 1004.61 1005.29 1006.11 1007.28 1008.29 1009.16 1010.01 1010.92 1011.57 1012.16 1012.85 1013.49 1014.20 1014.64 1015.09 1015.56 1016.01 1016.47 1016.83 1017.08 1017.18 1017.18 1017.23 1016.76 1016.35 1016.18 1016.59 1016.39 1016.77 1017.05 1017.13 1016.83 1016.66 1016.93 1017.01 1016.89 1016.75
998.07 999.52 1000.91 1002.03 1002.78 1002.49 1001.22 1001.63 1000.90 1001.21 1001.30 1001.95 1003.07 1004.09 1004.93 1006.02 1007.33 1008.41 1009.32 1010.10 1010.81 1011.36 1012.01 1012.78 1013.48 1014.00 1014.43 1015.06 1015.59 1015.93 1016.29 1016.55 1016.70 1016.83 1017.04 1017.01 1016.71 1016.51 1016.77 1016.84 1017.12 1017.19 1016.84 1016.71 1016.53 1017.00 1016.96 1016.77 1016.70
998.31 999.45 1000.69 1002.07 1002.71 1001.97 1000.88 1000.29 999.21 999.04 999.67 1000.41 1001.29 1002.44 1003.80 1004.92 1006.06 1007.23 1008.16 1009.02 1009.80 1010.53 1011.17 1011.87 1012.66 1013.42 1013.88 1014.41 1014.99 1015.39 1015.69 1015.89 1016.10 1016.41 1016.66 1016.83 1016.72 1016.63 1016.57 1016.82 1016.92 1016.91 1016.95 1016.63 1016.65 1016.75 1016.69 1016.67 1016.72
997.98 998.88 999.80 1001.26 1001.68 1002.17 1000.56 999.42 998.35 998.46 999.11 999.72 1000.76 1001.76 1002.78 1003.82 1004.83 1005.97 1007.06 1007.89 1008.80 1009.61 1010.20 1010.93 1011.88 1012.66 1013.24 1013.81 1014.47 1014.87 1015.12 1015.43 1015.76 1016.01 1016.18 1016.30 1016.45 1016.55 1016.69 1016.79 1017.13 1016.80 1016.65 1016.53 1016.81 1016.82 1016.79 1016.85 1016.85
997.22 998.44 999.73 1000.95 1002.29 1002.46 1001.25 1000.28 998.93 998.86 998.87 999.28 1000.00 1000.83 1001.72 1002.59 1003.56 1004.64 1005.82 1006.84 1007.85 1008.60 1009.48 1010.37 1011.15 1011.88 1012.59 1013.29 1013.84 1014.28 1014.63 1015.01 1015.38 1015.66 1015.78 1015.89 1015.98 1016.06 1016.30 1016.48 1016.57 1016.57 1016.56 1016.47 1016.60 1016.86 1017.08 1017.04 1017.00
997.18 998.14 999.46 1000.54 1001.67 1002.36 1001.80 1000.54 998.57 998.20 998.12 998.60 999.10 999.78 1000.68 1001.61 1002.40 1003.33 1004.41 1005.57 1006.68 1007.64 1008.58 1009.49 1010.49 1011.36 1012.12 1012.69 1013.20 1013.71 1014.14 1014.53 1014.84 1015.05 1015.17 1015.37 1015.65 1015.96 1016.34 1016.46 1016.58 1016.64 1016.81 1017.00 1017.07 1017.22 1017.50 1017.54 1017.45
996.70 997.93 999.30 1001.07 1001.61 1001.76 1001.20 999.76 997.54 998.12 997.63 997.63 998.13 999.04 999.73 1000.41 1001.38 1002.43 1003.33 1004.56 1005.73 1006.55 1007.48 1008.29 1009.48 1010.52 1011.18 1011.73 1012.42 1013.01 1013.47 1013.79 1014.16 1014.57 1014.94 1015.21 1015.60 1015.72 1015.78 1016.01 1016.43 1017.03 1017.55 1017.77 1017.98 1018.12 1018.16 1018.09 1017.87
Wind_Speed
10 8 2 4 4 2 6 7 5 10 17 10 10 12 11 14 4 8 6 5 5 4 4 7 10 11 13 13 12 11 11 13 12 12 13 14 13 14 13 13 13 13 12 12 13 12 11 9 7
8 11 3 3 1 2 5 10 8 20 21 21 16 13 12 7 7 11 6 4 4 4 3 6 9 11 13 11 10 11 12 11 12 12 12 12 12 11 11 12 12 13 13 11 11 10 9 7 4
4 6 2 4 3 7 11 13 14 18 19 16 8 13 6 4 8 4 8 6 5 5 4 6 10 10 11 12 11 11 12 12 12 11 11 11 11 10 11 11 11 11 11 10 9 6 5 3 1
4 1 3 2 14 18 22 19 21 24 18 13 17 12 7 6 3 8 10 7 6 4 3 7 9 10 11 10 10 10 10 10 10 10 10 10 11 10 12 11 10 8 8 7 6 4 3 1 2
6 4 3 3 6 14 18 22 19 18 14 16 12 8 6 6 14 12 10 8 7 2 5 6 9 12 11 10 10 9 10 8 9 11 10 10 10 9 9 8 7 5 6 4 2 2 3 4 6
3 2 3 3 8 17 18 22 26 23 22 20 17 10 6 11 13 9 9 6 3 5 6 6 9 10 11 10 9 10 9 8 10 10 10 9 9 8 7 6 6 3 3 2 2 4 6 7 8
3 1 6 9 11 19 22 21 17 18 16 13 13 8 8 9 9 11 8 6 6 4 4 5 5 8 10 9 10 10 9 8 7 7 7 7 8 8 7 6 5 5 3 4 5 7 9 11 11
3 1 1 10 15 15 14 19 20 18 16 18 18 7 9 12 12 9 10 8 5 5 5 5 5 5 6 5 9 8 8 8 6 5 4 5 5 6 7 6 6 6 6 7 7 7 11 13 15
13 4 1 12 13 14 21 22 16 15 16 7 5 18 17 18 15 12 9 7 5 4 4 3 3 4 5 5 6 5 6 5 5 4 6 4 3 5 7 9 10 9 8 7 4 12 13 14 17
5 5 8 10 7 12 19 23 19 18 18 19 22 22 21 19 14 14 9 6 5 3 3 4 3 4 6 4 5 3 1 2 3 3 3 3 5 4 6 5 7 10 11 6 5 1 3 9 5
4 4 10 12 13 14 5 22 20 20 17 21 26 24 21 17 13 14 11 10 8 6 4 5 3 4 6 6 3 2 2 1 3 5 4 2 3 3 1 2 4 3 8 2 2 6 3 5 1
8 11 11 8 12 8 19 19 13 16 20 21 21 22 20 18 15 12 10 11 10 8 6 6 4 5 7 5 3 2 3 1 4 3 4 2 2 2 3 2 4 3 4 5 4 2 5 5 6
12 8 9 11 13 17 20 18 16 19 20 22 21 20 18 17 16 12 10 10 9 7 7 6 5 6 6 6 3 3 1 1 4 4 2 2 1 1 1 4 2 5 3 3 5 5 5 6 9
1 9 9 7 17 18 19 11 14 18 18 19 19 17 16 13 12 10 11 11 8 7 8 7 6 6 6 5 2 3 3 6 7 4 4 3 4 3 3 5 4 4 3 2 4 6 6 7 4
4 11 9 8 13 16 23 16 16 20 17 16 16 14 15 13 14 14 13 12 12 8 9 10 8 6 6 5 5 4 4 4 1 4 6 5 5 4 1 4 4 2 1 6 3 5 3 6 5
7 7 1 11 15 19 11 13 16 18 17 17 17 15 15 16 14 15 14 12 12 11 10 11 9 8 7 5 4 2 4 2 3 2 4 5 5 3 2 3 4 3 3 4 2 4 3 3 4
5 2 4 9 5 22 8 14 17 19 18 15 14 13 13 12 15 10 16 14 12 8 11 9 8 10 8 6 4 5 5 3 4 4 1 5 3 2 2 2 5 6 4 3 2 2 1 3 4
5 4 3 8 10 2 12 11 20 20 19 17 15 14 14 15 16 14 15 13 9 9 9 8 9 9 8 6 4 3 2 4 5 5 2 4 2 2 4 2 3 4 3 3 1 3 2 3 4
7 11 10 16 9 9 7 20 19 20 18 18 18 16 16 17 17 13 15 14 12 8 8 8 9 8 7 3 3 2 3 4 4 4 5 3 3 2 0 1 4 3 3 2 3 2 3 3 2
18 18 23 23 19 8 10 16 19 19 20 21 21 18 18 17 17 17 17 17 15 14 12 11 9 8 6 4 3 3 3 3 2 2 4 4 4 3 2 2 3 2 2 4 3 3 3 3 2
15 23 24 20 17 20 13 9 15 13 13 18 19 19 15 17 22 20 17 16 13 13 10 13 11 9 7 6 3 2 2 2 2 2 4 6 5 4 5 5 4 3 2 3 3 4 4 4 4
18 20 25 26 15 5 19 7 11 14 12 18 19 17 16 17 19 18 18 17 16 14 12 13 11 11 8 9 5 6 4 4 4 3 4 6 6 7 6 5 3 6 3 4 3 4 2 2 4
16 36 15 5 8 4 7 9 8 13 11 16 20 18 17 19 19 18 19 20 18 15 14 14 13 11 9 9 9 7 5 4 3 3 5 4 4 6 7 3 6 5 6 4 5 6 6 3 2
10 12 6 4 2 3 9 8 13 17 15 17 21 19 19 20 19 19 17 13 13 12 15 14 13 12 12 11 11 8 8 7 4 3 1 4 3 3 6 6 2 4 7 6 4 4 5 4 4
5 6 2 4 3 8 8 6 10 20 20 20 24 21 21 21 19 19 19 17 15 15 14 15 16 16 14 12 10 12 9 7 6 6 3 2 3 2 3 2 4 5 6 6 3 3 4 4 4
9 8 7 6 6 10 1 6 7 20 22 22 24 24 22 22 20 21 21 19 18 16 16 16 15 14 14 13 11 8 9 6 5 4 2 3 3 1 3 5 5 7 8 3 3 2 3 4 4
8 10 10 4 4 1 4 2 6 20 17 21 22 22 25 22 21 22 21 20 19 17 17 17 16 14 14 12 9 7 7 7 5 6 4 4 4 3 4 4 3 5 3 2 3 3 4 3 3
10 7 5 3 1 1 6 4 7 9 17 19 24 24 24 23 23 22 21 19 18 16 14 13 16 16 13 11 9 8 7 7 6 4 4 3 0 5 6 5 4 4 3 3 4 4 6 6 5
5 7 3 6 7 5 2 5 13 11 12 19 20 24 23 24 23 22 22 20 20 18 16 15 16 15 12 12 10 9 8 7 7 7 6 3 6 5 5 4 4 4 7 9 9 7 9 8 7
10 9 8 7 8 4 5 8 9 10 14 12 12 21 23 23 22 22 21 21 20 20 18 18 16 16 15 14 12 11 10 10 9 6 6 7 6 5 7 5 7 10 9 8 8 8 7 7 7
Wind_Direction
163 173 158 50 60 199 135 196 258 123 79 80 71 97 88 43 38 118 119 112 99 51 14 107 114 108 101 97 94 94 93 91 90 88 92 93 94 97 101 101 110 107 101 100 99 97 91 85 79
183 179 188 204 225 113 136 168 144 98 114 112 93 92 55 69 56 106 117 127 95 90 51 102 103 103 103 97 90 88 95 94 92 90 89 97 98 100 101 102 102 105 106 104 98 96 95 94 79
283 294 288 199 174 108 127 135 120 122 117 107 102 61 69 77 83 91 110 121 106 88 80 117 113 106 105 100 96 101 102 105 101 99 100 98 103 111 111 110 109 111 109 102 96 95 94 97 25
205 249 274 302 95 87 91 103 104 99 88 84 105 76 76 74 75 121 131 128 116 115 98 115 121 110 104 108 111 106 99 97 98 101 102 111 110 104 108 104 104 104 102 104 115 121 133 174 256
233 204 258 236 55 101 85 118 109 95 92 88 96 93 74 55 105 117 125 127 120 142 126 117 124 120 117 116 110 107 98 105 112 104 107 111 113 109 104 102 98 100 107 114 128 183 207 226 245
271 89 327 325 64 98 91 96 97 98 101 103 85 98 70 127 120 123 118 112 134 147 126 125 124 124 123 111 112 104 102 96 117 118 115 122 122 120 117 125 125 148 153 215 244 261 266 264 259
202 131 211 122 71 101 110 113 109 118 109 88 124 94 118 123 128 129 135 133 100 101 127 126 122 122 115 122 114 117 121 119 126 123 128 149 148 147 152 162 166 200 214 258 276 283 284 291 293
130 46 281 102 105 112 109 92 107 109 116 120 135 138 144 158 154 127 112 89 74 83 82 114 125 121 123 114 127 131 142 150 133 133 174 181 187 184 182 200 209 224 227 237 264 295 318 315 301
184 270 355 106 102 122 106 108 107 113 130 64 140 132 141 158 142 125 119 106 73 51 46 111 140 186 147 154 133 125 147 145 152 166 208 229 213 220 219 211 228 237 245 250 321 34 1 330 322
144 202 96 106 119 128 129 126 128 109 100 105 101 119 139 148 150 142 152 125 106 121 164 178 200 176 156 138 109 133 266 194 169 184 168 212 254 237 224 221 231 234 245 240 135 189 350 329 314
202 142 69 84 87 99 134 126 129 122 124 136 140 145 146 144 152 160 147 148 165 171 186 172 196 100 87 78 89 75 213 2 200 200 216 247 243 181 146 275 324 266 253 195 220 292 339 276 342
86 87 95 120 117 130 90 101 134 127 134 137 140 145 148 157 166 164 150 158 174 178 189 162 194 128 98 107 124 161 19 14 260 223 239 34 57 46 147 271 267 265 250 156 185 228 264 283 272
88 99 89 96 93 86 83 92 100 103 124 137 144 152 159 168 167 168 156 162 186 193 162 168 160 159 118 102 178 137 218 284 264 245 227 144 100 235 229 231 292 308 45 181 178 212 239 263 264
26 106 101 125 105 107 114 108 115 120 129 141 150 159 162 151 162 145 158 174 193 201 177 169 164 152 136 149 140 236 221 231 207 194 208 174 165 239 278 24 351 359 328 245 183 206 225 246 275
31 131 145 156 145 133 111 108 121 132 137 146 159 165 151 176 176 174 175 180 190 202 201 166 159 172 160 165 182 224 270 294 221 191 199 196 219 207 156 161 249 280 348 309 302 288 276 281 289
13 4 40 181 162 152 122 135 138 141 152 159 164 169 169 182 164 171 174 177 188 196 169 163 162 170 172 167 201 262 286 288 292 269 217 218 230 109 85 161 286 281 292 261 305 288 301 313 307
330 282 345 327 231 166 134 141 157 157 159 167 161 171 174 173 179 183 170 181 197 188 167 175 166 171 176 183 208 233 244 265 285 298 298 179 51 96 312 169 231 251 254 259 280 328 355 312 315
302 354 317 236 28 109 133 144 161 168 162 163 164 171 180 185 183 178 180 184 197 174 169 178 168 173 174 172 201 253 299 271 254 261 257 168 133 328 293 317 340 251 302 321 316 233 275 248 269
210 336 302 285 158 230 142 151 172 174 164 167 172 179 185 192 182 175 180 182 194 186 177 188 171 171 165 155 184 223 232 251 268 317 280 199 175 240 27 359 331 11 28 249 262 285 285 299 302
163 179 244 268 266 231 157 170 180 181 174 172 171 179 185 188 168 183 186 197 187 190 197 183 177 177 167 166 193 187 202 242 200 289 303 236 215 222 254 189 287 296 330 333 291 277 303 299 3
180 201 225 234 261 220 129 163 178 199 167 169 171 177 182 168 173 181 184 186 187 186 176 181 179 172 177 179 186 242 274 310 347 308 295 284 226 221 236 232 249 256 315 303 313 271 268 284 303
176 224 237 233 224 205 152 176 192 194 166 169 167 177 180 170 171 174 184 188 192 194 184 178 180 179 178 184 189 199 214 219 236 239 258 285 220 215 221 25 342 323 285 314 271 286 262 272 291
204 195 225 153 185 172 215 110 202 181 167 170 170 177 174 168 172 171 178 186 191 193 186 179 182 181 180 190 195 207 222 221 232 244 274 287 235 212 106 60 6 344 331 322 314 316 327 317 311
211 218 273 164 131 12 222 140 172 181 178 175 169 174 166 168 172 173 179 174 182 175 177 182 183 192 193 188 201 199 213 232 248 247 232 303 287 290 142 177 15 314 289 320 315 320 329 328 340
205 121 3 9 344 226 245 146 191 189 176 172 170 176 170 169 168 173 177 181 186 188 179 181 184 194 194 198 191 205 216 221 229 229 217 250 301 354 152 186 188 244 270 274 314 314 324 345 340
208 181 163 175 210 244 225 204 231 176 172 175 169 172 168 170 170 176 180 181 186 187 185 183 185 187 190 192 201 187 199 217 226 228 218 219 235 180 175 213 221 241 241 13 346 328 339 337 318
239 209 220 222 255 4 264 9 56 159 169 169 167 166 170 173 172 177 180 182 183 187 187 184 181 188 189 189 184 193 190 200 216 232 236 230 253 244 92 106 80 45 64 22 25 4 328 328 316
160 197 261 341 122 292 278 8 198 167 172 166 168 173 174 175 176 175 179 180 181 185 181 178 178 184 184 183 183 192 190 189 205 225 250 250 322 77 88 88 97 73 51 22 32 1 6 29 6
195 232 268 169 143 178 226 195 244 184 174 168 176 173 174 178 179 177 178 177 178 181 180 178 176 179 180 182 184 182 187 191 196 208 219 172 114 112 96 96 75 57 49 44 48 38 29 23 8
174 202 190 131 273 218 148 267 262 194 175 163 169 173 177 177 177 177 174 174 176 180 180 183 172 176 180 182 182 186 184 192 197 190 141 129 143 149 140 122 83 76 66 49 47 37 24 15 356